Regional Weather Roundup
Issued by NWS

Home | Current Version | Previous Version | Graphics & Text | Print | Product List | Glossary Off
Versions: 1 2 3 4 5 6 7 8 9 10 11 12 13 14 15 16 17 18 19 20 21 22 23 24 25 26 27 28 29 30 31 32 33 34 35 36 37 38 39 40 41 42 43 44 45 46 47 48 49 50

000
ASUS43 KMKX 211900
RWRWI

WISCONSIN REGIONAL WEATHER ROUNDUP
NATIONAL WEATHER SERVICE MILWAUKEE/SULLIVAN WI
200 PM CDT SUN SEP 21 2014

NOTE: "FAIR" INDICATES FEW OR NO CLOUDS BELOW 12,000 FEET WITH NO
SIGNIFICANT WEATHER AND/OR OBSTRUCTIONS TO VISIBILITY.

WIZ001-002-006>008-014>016-023>028-212000-
NORTHWEST WISCONSIN

CITY           SKY/WX    TMP DP  RH WIND       PRES   REMARKS
SUPERIOR ARPT  SUNNY     61  46  58 N7        30.12S
ASHLAND        SUNNY     56  45  66 N8        30.13R
HAYWARD        MOSUNNY   58  43  57 N8G17     30.11R
SIREN          MOSUNNY   60  44  54 N15G21    30.12R
RICE LAKE      PTSUNNY   61  44  53 NW13G20   30.11R
LADYSMITH      MOSUNNY   57  44  60 N15G21    30.10R
EAU CLAIRE     NOT AVBL
MENOMONIE      PTCLDY    63  44  49 NW15G24   30.09S
NEW RICHMOND   MOSUNNY   63  46  52 NW13      30.12S
OSCEOLA        MOSUNNY   63  46  55 NW10G22   30.15S
$$

WIZ003>005-009-010-017-018-212000-
NORTH CENTRAL WISCONSIN

CITY           SKY/WX    TMP DP  RH WIND       PRES   REMARKS
WOODRUFF       PTSUNNY   52  41  65 N18G26    30.05R
RHINELANDER    PTSUNNY   51  39  63 NW12G18   30.05R
EAGLE RIVER    CLOUDY    46  37  69 N15G24    30.05R
LAND O LAKES   CLOUDY    47  38  69 NW12G22   30.06R
PHILLIPS       CLOUDY    51  42  71 N13G21    30.07R
TOMAHAWK       PTSUNNY   53  40  60 N13G20    30.05R
MEDFORD        CLOUDY    55  44  65 NW14G20   30.05R
MERRILL        CLOUDY    53  42  64 N15       30.03S
$$

WIZ029-030-035-036-043>047-212000-
CENTRAL WISCONSIN

CITY           SKY/WX    TMP DP  RH WIND       PRES   REMARKS
WAUSAU         PTSUNNY   56  41  57 N13G22    30.02R
MOSINEE        PTSUNNY   55  43  62 N17       30.04R
MARSHFIELD     MOSUNNY   60  44  55 N16G28    30.04R
STEVENS POINT  PTSUNNY   55  40  57 NW12G24   30.03R
WAUPACA        MOSUNNY   61  43  51 N14G22    30.00R
WAUTOMA        NOT AVBL
WISC RAPIDS    MOSUNNY   60  42  51 N17G25    30.04R
CAMP DOUGLAS   PTSUNNY   64  48  55 N14G23    30.03S
$$

WIZ011>013-019>022-031-037>040-048>050-212000-
NORTHEAST WISCONSIN

CITY           SKY/WX    TMP DP  RH WIND       PRES   REMARKS
ANTIGO         CLOUDY    51  41  69 N17G24    30.02R
STURGEON BAY   CLOUDY    54  43  66 N18       29.95R
GREEN BAY      CLOUDY    56  46  69 N13G20    29.98R
MANITOWOC      NOT AVBL
APPLETON       PTSUNNY   54  43  66 N17G24    29.99R
CLINTONVILLE   PTSUNNY   55  39  54 N13       30.00R
OSHKOSH        PTSUNNY   57  42  57 N18G25    29.99R
$$

WIZ032>034-041-042-053>061-212000-
SOUTHWEST WISCONSIN

CITY           SKY/WX    TMP DP  RH WIND       PRES   REMARKS
LA CROSSE      MOSUNNY   67  45  45 N20G26    30.05S
SPARTA         PTSUNNY   62  44  50 NW13G18   30.06R
VIROQUA        FAIR      63  48  56 NW17      30.05S
BOSCOBEL       MOSUNNY   68  49  50 N12G20    30.04S
PRAIRIE DU CHI CLOUDY    62  49  61 NW9       30.06R
PLATTEVILLE    CLOUDY    62  53  73 NW10G16   30.04S
$$

WIZ056-057-062-063-064-067-068-212000-
SOUTH CENTRAL WISCONSIN

CITY           SKY/WX    TMP DP  RH WIND       PRES   REMARKS
BARABOO/DELLS  PTSUNNY   61  44  53 NW10G21   30.01R
LONE ROCK      NOT AVBL
WATERTOWN      PTSUNNY   64  53  68 NW16G22   29.95R
MADISON        PTSUNNY   63  49  60 N17G26    29.99R
MIDDLETON      CLOUDY    63  49  61 N15G21    30.00R
MONROE         CLOUDY    64  52  63 NW14G20   29.99S
JANESVILLE     PTSUNNY   66  50  55 NW12G17   29.96S
$$

WIZ051-052-058>065-066-070>072-212000-
SOUTHEAST WISCONSIN

CITY           SKY/WX    TMP DP  RH WIND       PRES   REMARKS
MILWAUKEE      PTSUNNY   61  50  67 NW15G29   29.94R
WAUKESHA       PTSUNNY   57  52  82 N12G20    29.96R
MILWAUKEE/TIMM PTSUNNY   61  52  72 N16       29.95R
RACINE         CLOUDY    63  51  65 N13       29.95R
BURLINGTON     CLOUDY    63  49  60 NW15G21   29.94S
KENOSHA        CLOUDY    64  49  57 NW13G23   29.94R
FOND DU LAC    PTSUNNY   57  44  62 N18G29    29.99R
SHEBOYGAN      CLOUDY    59  47  64 NW18G28   29.95R
WEST BEND      CLOUDY    57  50  77 NW16G24   29.95R
JUNEAU         CLOUDY    60  49  67 NW17G25   29.97R
$$

LSZ147-162-212000-
LAKE SUPERIOR

STATION/POSITION TIME  TEMP    WIND        PRES    WAVE
                       AIR SEA DIR/SP/G            HT/PER
                 (UTC) (F)     (DEG/KT/KT) (MB)    (FT/S)
W MID LAKE BUOY  1750   46 46  300/  4/  6 1019.3R   3/ 5
DEVILS ISLAND    1800   48      20/  3/  4 1020.3R
PORT WING        1800   55      40/  7/  9 1020.0R
SAXON HARBOR     1840   50      30/  9/ 12 1020.3R
$$

LMZ867-665-643>646-212000-
LAKE MICHIGAN

STATION/POSITION TIME  TEMP    WIND        PRES    WAVE
                       AIR SEA DIR/SP/G            HT/PER
                 (UTC) (F)     (DEG/KT/KT) (MB)    (FT/S)
N MID LAKE BUOY  1750   51 58  340/ 25/ 31 1011.4R   6/ 6
NORTHPORT PIER   1807   51     340/ 27/ 30 1013.2R
SISTER BAY       1657          360/ 28/ 34   N/A
KEWAUNEE LAKESHO 1800   57     330/ 11/ 16 1012.2R
SHEBOYGAN LAKESH 1800   56 51  350/ 17/ 19 1013.4R
PORT WASHINGTON  1800   62     340/  9/ 17 1013.9R
ATWATER BUOY     1800   58     340/ 12/ 12 1013.9R
MILWAUKEE LAKESH 1800   61     310/ 10/ 15   N/A
S MID LAKE BUOY  1750   59 62  330/ 27/ 33 1011.3R   7/ 6
KENOSHA   LAKESH 1800   62     320/ 11/ 24 1012.9R
$$

TC  - TEMPERATURE IN CELSIUS
VSB - VISIBILITY IN STATUTE MILES
WCI - WIND CHILL INDEX
HX  - HEAT INDEX



USA.gov is the U.S. government's official web portal to all federal, state and local government web resources and services.